Location: Kawakawa
(35.3830°S, 174.0670°E)
Time: 19:05:38
(UTC+13:00)

Cosmos 1271 Rocket - Pass Details

Date: 24 January 2019
Orbit: 498 x 547 km, 81.2° (Epoch: 21 February)

Event Time Altitude Azimuth Distance (km) Brightness Sun altitude
Rises 20:59:40 0° 181° (S) 2,738 6.8 -4.9°
Reaches altitude 10° 21:01:56 10° 175° (S) 1,842 5.8 -5.3°
Maximum altitude 21:05:50 44° 101° (ESE) 769 3.2 -6.0°
Drops below altitude 10° 21:09:42 10° 28° (NNE) 1,824 5.0 -6.7°
Enters shadow 21:11:17 - 22° (NNE) 2,455 5.7 -6.9°
